SW1035 Weather Reports


time (UTC)temp
F
wind
direction
speed
knots
gust
knots
rain 1hr
in
rain 24hr
in
rain mn
in
humidity
%
barometer
mb
20260507014605 71 61 0.9 4.3 0.00 0.00 0.00 56 1016.1
20260507013109 72 204 0.9 5.2 0.00 0.00 0.00 55 1016.2
20260507011548 73 0 0.0 2.6 0.00 0.00 0.00 55 1016.1
20260507010049 74 254 0.9 5.2 0.00 0.00 0.00 54 1016.2
20260507004553 75 167 0.0 5.2 0.00 0.00 0.00 53 1016.2
20260507003053 75 0 0.9 4.3 0.00 0.00 0.00 52 1016.2
20260507001614 75 103 0.9 4.3 0.00 0.00 0.00 52 1016.2
20260507000052 75 225 0.9 3.5 0.00 0.00 0.00 53 1016.2
20260506234555 75 159 0.9 8.7 0.00 0.00 0.00 53 1016.1
20260506233059 75 244 0.9 5.2 0.00 0.00 0.00 54 1016.1
20260506231551 75 159 1.7 7.0 0.00 0.00 0.00 53 1016.1
20260506230055 76 167 0.9 6.1 0.00 0.00 0.00 52 1016.2
20260506224549 76 238 1.7 7.0 0.00 0.00 0.00 52 1016.4
20260506223104 75 236 1.7 6.1 0.00 0.00 0.00 53 1016.7
20260506221555 75 140 0.9 7.0 0.00 0.00 0.00 54 1017.1
20260506220049 74 178 3.5 7.0 0.00 0.00 0.00 53 1017.3
20260506214558 75 175 0.9 5.2 0.00 0.00 0.00 53 1017.4
20260506213054 74 223 2.6 7.0 0.00 0.00 0.00 53 1017.5
20260506211549 75 196 1.7 5.2 0.00 0.00 0.00 51 1017.5
20260506210050 75 186 0.9 5.2 0.00 0.00 0.00 52 1017.6
20260506204555 73 0 2.6 7.8 0.00 0.00 0.00 53 1017.6
20260506203101 74 129 0.9 4.3 0.00 0.00 0.00 54 1017.6
20260506201553 73 326 1.7 6.1 0.00 0.00 0.00 54 1018.0
20260506200130 72 317 1.7 7.8 0.00 0.00 0.00 54 1018.2
20260506194604 72 120 1.7 9.6 0.00 0.00 0.00 54 1018.2
20260506193052 72 207 1.7 7.0 0.00 0.00 0.00 55 1018.2
20260506191554 72 144 1.7 6.1 0.00 0.00 0.00 53 1018.2
20260506190052 73 217 0.9 6.1 0.00 0.00 0.00 50 1018.2
20260506184553 72 0 0.9 4.3 0.00 0.00 0.00 52 1018.2
20260506183048 70 0 0.9 6.1 0.00 0.00 0.00 54 1018.4
20260506181550 69 186 0.9 7.0 0.00 0.00 0.00 54 1018.6
20260506180104 70 184 0.0 3.5 0.00 0.00 0.00 54 1018.8
20260506174552 68 102 0.9 3.5 0.00 0.00 0.00 56 1018.7
20260506173107 67 207 1.7 5.2 0.00 0.00 0.00 56 1018.8
20260506171557 66 213 0.9 4.3 0.00 0.00 0.00 57 1018.6
20260506170053 65 216 0.9 4.3 0.00 0.00 0.00 60 1018.7
20260506164550 64 0 0.9 3.5 0.00 0.00 0.00 64 1018.7
20260506163053 62 195 0.0 2.6 0.00 0.00 0.00 68 1018.7
20260506161557 60 0 0.9 4.3 0.00 0.00 0.00 71 1018.7
20260506160104 58 0 0.0 3.5 0.00 0.00 0.00 76 1018.6
20260506154552 57 0 0.0 3.5 0.00 0.00 0.00 79 1018.7
20260506153055 55 0 0.0 0.9 0.00 0.00 0.00 83 1018.5
20260506151555 53 0 0.0 0.9 0.00 0.00 0.00 83 1018.6
20260506150101 51 0 0.0 0.0 0.00 0.00 0.00 84 1018.5
20260506144554 50 0 0.0 0.0 0.00 0.00 0.00 84 1018.4
20260506143054 50 0 0.0 0.0 0.00 0.00 0.00 84 1018.3
20260506141559 49 0 0.0 0.0 0.00 0.00 0.00 84 1018.3
20260506140050 48 0 0.0 0.0 0.00 0.00 0.00 84 1018.3
20260506134616 48 0 0.0 0.0 0.00 0.00 0.00 84 1018.2
20260506133054 48 0 0.0 0.0 0.00 0.00 0.00 84 1018.1
20260506131607 48 0 0.0 0.0 0.00 0.00 0.00 84 1018.0
20260506130050 48 0 0.0 0.0 0.00 0.00 0.00 84 1017.8
20260506124551 48 0 0.0 0.0 0.00 0.00 0.00 83 1017.8
20260506123053 48 0 0.0 0.0 0.00 0.00 0.00 83 1017.8
20260506121549 49 0 0.0 0.0 0.00 0.00 0.00 84 1017.7
20260506120052 49 0 0.0 0.0 0.00 0.00 0.00 84 1017.6
20260506114556 49 0 0.0 0.0 0.00 0.00 0.00 83 1017.5
20260506113055 49 0 0.0 0.0 0.00 0.00 0.00 83 1017.5
20260506111612 49 0 0.0 0.0 0.00 0.00 0.00 83 1017.5
20260506110053 49 0 0.0 0.0 0.00 0.00 0.00 83 1017.5
20260506104548 49 0 0.0 0.9 0.00 0.00 0.00 83 1017.4
20260506103059 49 0 0.0 0.0 0.00 0.00 0.00 84 1017.4
20260506101550 49 0 0.0 0.0 0.00 0.00 0.00 84 1017.5
20260506100056 49 0 0.0 0.0 0.00 0.00 0.00 83 1017.5
20260506094552 49 0 0.0 0.0 0.00 0.00 0.00 83 1017.5
20260506093057 50 0 0.0 0.0 0.00 0.00 0.00 84 1017.6
20260506091555 50 0 0.0 0.9 0.00 0.00 0.00 84 1017.6
20260506090051 50 0 0.0 0.0 0.00 0.00 0.00 84 1017.9
20260506084553 50 0 0.0 0.0 0.00 0.00 0.00 84 1017.9
20260506083114 50 0 0.0 0.0 0.00 0.00 0.00 83 1017.8
20260506081559 50 0 0.0 0.0 0.00 0.00 0.00 83 1017.8
20260506073054 50 0 0.0 0.0 0.00 0.00 0.00 81 1017.6
20260506071555 50 0 0.0 0.9 0.00 0.00 0.00 81 1017.5
20260506070103 51 0 0.0 0.9 0.00 0.00 0.00 80 1017.2
20260506061553 52 0 0.0 0.0 0.00 0.00 0.00 80 1016.8
20260506044550 54 0 0.0 0.9 0.00 0.00 0.00 75 1016.3
20260506043057 55 0 0.0 0.0 0.00 0.00 0.00 74 1016.0
20260506041603 56 0 0.0 1.7 0.00 0.00 0.00 73 1015.9
20260506040059 56 0 0.0 1.7 0.00 0.00 0.00 72 1015.6
20260506034558 57 0 0.0 0.0 0.00 0.00 0.00 72 1015.3
20260506033057 57 0 0.0 0.0 0.00 0.00 0.00 71 1015.1
20260506031557 58 0 0.0 0.9 0.00 0.00 0.00 70 1015.0
20260506030059 59 0 0.0 1.7 0.00 0.00 0.00 68 1014.7
20260506024601 61 0 0.0 0.0 0.00 0.00 0.00 67 1014.6
20260506023056 62 0 0.0 0.9 0.00 0.00 0.00 65 1014.3
20260506021558 62 0 0.0 1.7 0.00 0.00 0.00 64 1014.2
20260506020106 63 0 0.0 1.7 0.00 0.00 0.00 63 1014.1